Location: Peebles
(55.6412°N, 3.1714°W)
Time: 08:49:30
(UTC+00:00)

ITUPSAT 1 - Visible Passes

Search period start: 30 November 2022 00:00
Search period end: 10 December 2022 00:00
Orbit: 700 x 710 km, 98.5° (Epoch: 29 November)

Date Brightness Start Highest point End Pass type
(mag) Time Alt. Az. Time Alt. Az. Time Alt. Az.
30 Nov ? 05:52:21 10° E 05:55:12 16° NE 05:58:02 10° NNE visible
30 Nov ? 07:27:25 10° SSE 07:32:10 67° ENE 07:36:57 10° NNW visible
01 Dec ? 06:34:18 10° ESE 06:38:22 28° ENE 06:42:28 10° N visible
02 Dec ? 05:42:34 10° ENE 05:44:56 14° NE 05:47:18 10° NNE visible
02 Dec ? 07:17:06 10° SE 07:21:47 56° ENE 07:26:30 10° N visible
03 Dec ? 06:24:13 10° ESE 06:28:03 24° NE 06:31:55 10° N visible
04 Dec ? 05:32:55 10° ENE 05:34:41 12° NE 05:36:27 10° NNE visible
04 Dec ? 07:06:49 10° SE 07:11:25 46° ENE 07:16:01 10° N visible
05 Dec ? 06:14:11 10° E 06:17:45 21° NE 06:21:20 10° N visible
06 Dec ? 05:23:43 10° NE 05:24:27 10° NE 05:25:11 10° NNE visible
06 Dec ? 06:56:36 10° SE 07:01:02 39° ENE 07:05:31 10° N visible
07 Dec ? 06:04:13 10° E 06:07:28 18° NE 06:10:43 10° N visible
07 Dec ? 07:39:46 10° SSE 07:44:34 81° ENE 07:49:25 10° NNW visible
08 Dec ? 06:46:24 10° ESE 06:50:41 33° ENE 06:55:00 10° N visible
09 Dec ? 05:54:18 10° E 05:57:10 16° NE 06:00:02 10° NNE visible
09 Dec ? 07:29:24 10° SSE 07:34:09 67° ENE 07:38:57 10° NNW visible
